Location: Emporia
(38.4040°N, 96.1810°W)
Time: 11:03:13
(UTC-05:00)

ISS - Visible Passes

Search period start: 29 June 2017 00:00
Search period end: 09 July 2017 00:00
Orbit: 401 x 408 km, 51.6° (Epoch: 30 June)

Date Brightness Start Highest point End Pass type
(mag) Time Alt. Az. Time Alt. Az. Time Alt. Az.
04 Jul -1.3 04:41:54 10° SSE 04:43:42 14° SE 04:45:32 10° E visible
05 Jul -3.8 05:24:24 10° SW 05:27:37 77° SE 05:30:53 10° NE visible
06 Jul -2.8 04:34:15 26° S 04:35:26 36° SE 04:38:28 10° ENE visible
07 Jul -1.5 03:44:02 17° ESE 03:44:02 17° ESE 03:45:38 10° E visible
07 Jul -3.0 05:16:41 11° WSW 05:19:34 42° NW 05:22:43 10° NE visible
08 Jul -3.9 04:26:23 45° WSW 04:27:16 82° NW 04:30:32 10° NE visible
